Time,TemperatureF,DewpointF,PressureIn,WindDirection,WindDirectionDegrees,WindSpeedMPH,WindSpeedGustMPH,Humidity,HourlyPrecipIn,Conditions,Clouds,dailyrainin,SoftwareType,DateUTC
2013-02-07 00:00:00,35.0,27.6,30.15,West,265,0.0,9.0,74,0.00,,,0.00,VWS V14.01,2013-02-07 05:00:00,
2013-02-07 00:01:00,35.2,27.8,30.15,West,265,0.0,9.0,74,0.00,,,0.00,VWS V14.01,2013-02-07 05:01:00,
2013-02-07 00:04:00,35.3,27.5,30.15,NW,318,0.0,9.0,73,0.00,,,0.00,VWS V14.01,2013-02-07 05:04:00,
2013-02-07 00:09:00,35.8,27.3,30.15,NW,318,0.0,9.0,71,0.00,,,0.00,VWS V14.01,2013-02-07 05:09:00,
2013-02-07 00:14:00,36.0,27.9,30.15,NW,318,0.0,9.0,72,0.00,,,0.00,VWS V14.01,2013-02-07 05:14:00,
2013-02-07 00:19:00,36.2,28.1,30.15,NW,318,0.0,9.0,72,0.00,,,0.00,VWS V14.01,2013-02-07 05:19:00,
2013-02-07 00:24:00,36.5,27.0,30.13,WNW,301,0.0,9.0,68,0.00,,,0.00,VWS V14.01,2013-02-07 05:24:00,
2013-02-07 00:29:00,37.3,25.9,30.13,WSW,242,1.0,9.0,63,0.00,,,0.00,VWS V14.01,2013-02-07 05:29:00,
2013-02-07 00:34:00,38.5,26.6,30.13,North,350,0.0,9.0,62,0.00,,,0.00,VWS V14.01,2013-02-07 05:34:00,
2013-02-07 00:39:00,39.1,27.2,30.12,North,350,0.0,9.0,62,0.00,,,0.00,VWS V14.01,2013-02-07 05:39:00,
2013-02-07 00:44:00,38.9,27.4,30.12,North,350,2.0,9.0,63,0.00,,,0.00,VWS V14.01,2013-02-07 05:44:00,
2013-02-07 00:49:00,38.9,27.0,30.12,North,350,0.0,9.0,62,0.00,,,0.00,VWS V14.01,2013-02-07 05:49:00,
2013-02-07 00:54:00,38.9,27.0,30.12,North,350,0.0,9.0,62,0.00,,,0.00,VWS V14.01,2013-02-07 05:54:00,
2013-02-07 00:59:00,38.6,27.9,30.12,North,350,0.0,9.0,65,0.00,,,0.00,VWS V14.01,2013-02-07 05:59:00,
2013-02-07 01:05:00,38.6,28.6,30.12,North,350,0.0,9.0,67,0.00,,,0.00,VWS V14.01,2013-02-07 06:05:00,
2013-02-07 01:10:00,38.3,29.0,30.11,North,350,0.0,9.0,69,0.00,,,0.00,VWS V14.01,2013-02-07 06:10:00,
2013-02-07 01:15:00,37.9,28.6,30.11,North,350,0.0,9.0,69,0.00,,,0.00,VWS V14.01,2013-02-07 06:15:00,
2013-02-07 01:20:00,37.3,28.1,30.11,North,350,0.0,9.0,69,0.00,,,0.00,VWS V14.01,2013-02-07 06:20:00,
2013-02-07 01:25:00,37.0,27.4,30.11,North,350,0.0,9.0,68,0.00,,,0.00,VWS V14.01,2013-02-07 06:25:00,
2013-02-07 01:30:00,36.8,28.0,30.11,North,350,0.0,9.0,70,0.00,,,0.00,VWS V14.01,2013-02-07 06:30:00,
2013-02-07 01:35:00,36.6,27.4,30.11,North,350,0.0,9.0,69,0.00,,,0.00,VWS V14.01,2013-02-07 06:35:00,
2013-02-07 01:40:00,36.6,27.8,30.11,North,350,0.0,9.0,70,0.00,,,0.00,VWS V14.01,2013-02-07 06:40:00,
2013-02-07 01:45:00,36.5,28.0,30.11,North,350,0.0,9.0,71,0.00,,,0.00,VWS V14.01,2013-02-07 06:45:00,
2013-02-07 01:50:00,36.2,28.1,30.10,North,350,0.0,9.0,72,0.00,,,0.00,VWS V14.01,2013-02-07 06:50:00,
2013-02-07 01:55:00,35.8,27.7,30.10,North,350,0.0,9.0,72,0.00,,,0.00,VWS V14.01,2013-02-07 06:55:00,
2013-02-07 02:01:00,35.8,28.0,30.10,North,350,0.0,9.0,73,0.00,,,0.00,VWS V14.01,2013-02-07 07:01:00,
2013-02-07 02:06:00,35.6,27.8,30.10,North,350,0.0,9.0,73,0.00,,,0.00,VWS V14.01,2013-02-07 07:06:00,
2013-02-07 02:11:00,35.5,28.0,30.10,North,350,0.0,9.0,74,0.00,,,0.00,VWS V14.01,2013-02-07 07:11:00,
2013-02-07 02:16:00,35.3,27.5,30.10,North,350,0.0,9.0,73,0.00,,,0.00,VWS V14.01,2013-02-07 07:16:00,
2013-02-07 02:21:00,35.3,27.5,30.10,North,350,0.0,9.0,73,0.00,,,0.00,VWS V14.01,2013-02-07 07:21:00,
2013-02-07 02:26:00,35.3,27.5,30.10,North,350,0.0,9.0,73,0.00,,,0.00,VWS V14.01,2013-02-07 07:26:00,
2013-02-07 02:31:00,35.3,27.2,30.10,North,350,0.0,9.0,72,0.00,,,0.00,VWS V14.01,2013-02-07 07:31:00,
2013-02-07 02:36:00,35.3,27.5,30.10,North,350,0.0,9.0,73,0.00,,,0.00,VWS V14.01,2013-02-07 07:36:00,
2013-02-07 02:41:00,35.2,27.4,30.10,North,350,0.0,9.0,73,0.00,,,0.00,VWS V14.01,2013-02-07 07:41:00,
2013-02-07 02:46:00,35.0,27.2,30.10,North,350,0.0,9.0,73,0.00,,,0.00,VWS V14.01,2013-02-07 07:46:00,
2013-02-07 02:52:00,34.9,27.1,30.10,North,350,0.0,9.0,73,0.00,,,0.00,VWS V14.01,2013-02-07 07:52:00,
2013-02-07 02:57:00,34.9,27.1,30.10,North,350,0.0,9.0,73,0.00,,,0.00,VWS V14.01,2013-02-07 07:57:00,
2013-02-07 03:02:00,34.9,27.5,30.10,North,350,0.0,9.0,74,0.00,,,0.00,VWS V14.01,2013-02-07 08:02:00,
2013-02-07 03:07:00,34.7,27.3,30.10,North,350,0.0,9.0,74,0.00,,,0.00,VWS V14.01,2013-02-07 08:07:00,
2013-02-07 03:12:00,34.6,27.2,30.10,North,350,0.0,9.0,74,0.00,,,0.00,VWS V14.01,2013-02-07 08:12:00,
2013-02-07 03:17:00,34.6,27.5,30.10,North,350,0.0,9.0,75,0.00,,,0.00,VWS V14.01,2013-02-07 08:17:00,
2013-02-07 03:22:00,34.6,27.2,30.10,North,350,0.0,9.0,74,0.00,,,0.00,VWS V14.01,2013-02-07 08:22:00,
2013-02-07 03:27:00,34.6,27.2,30.10,North,350,0.0,9.0,74,0.00,,,0.00,VWS V14.01,2013-02-07 08:27:00,
2013-02-07 03:32:00,34.7,27.3,30.10,North,350,0.0,9.0,74,0.00,,,0.00,VWS V14.01,2013-02-07 08:32:00,
2013-02-07 03:38:00,34.7,27.3,30.11,North,350,0.0,9.0,74,0.00,,,0.00,VWS V14.01,2013-02-07 08:38:00,
2013-02-07 03:43:00,34.7,27.3,30.11,North,350,0.0,9.0,74,0.00,,,0.00,VWS V14.01,2013-02-07 08:43:00,
2013-02-07 03:48:00,34.7,27.3,30.11,North,350,0.0,9.0,74,0.00,,,0.00,VWS V14.01,2013-02-07 08:48:00,
2013-02-07 03:53:00,34.9,27.5,30.11,North,350,0.0,9.0,74,0.00,,,0.00,VWS V14.01,2013-02-07 08:53:00,
2013-02-07 03:58:00,35.0,27.6,30.11,North,350,0.0,9.0,74,0.00,,,0.00,VWS V14.01,2013-02-07 08:58:00,
2013-02-07 04:03:00,35.2,27.8,30.11,North,350,0.0,9.0,74,0.00,,,0.00,VWS V14.01,2013-02-07 09:03:00,
2013-02-07 04:08:00,35.5,28.4,30.11,North,350,0.0,9.0,75,0.00,,,0.00,VWS V14.01,2013-02-07 09:08:00,
2013-02-07 04:13:00,35.6,28.1,30.11,North,350,1.0,9.0,74,0.00,,,0.00,VWS V14.01,2013-02-07 09:13:00,
2013-02-07 04:18:00,35.6,28.5,30.11,North,350,0.0,9.0,75,0.00,,,0.00,VWS V14.01,2013-02-07 09:18:00,
2013-02-07 04:23:00,35.8,28.0,30.13,North,350,0.0,9.0,73,0.00,,,0.00,VWS V14.01,2013-02-07 09:23:00,
2013-02-07 04:28:00,35.9,27.8,30.13,North,350,0.0,9.0,72,0.00,,,0.00,VWS V14.01,2013-02-07 09:28:00,
2013-02-07 04:33:00,35.9,27.8,30.13,North,350,0.0,9.0,72,0.00,,,0.00,VWS V14.01,2013-02-07 09:33:00,
2013-02-07 04:38:00,35.9,27.1,30.13,North,350,0.0,9.0,70,0.00,,,0.00,VWS V14.01,2013-02-07 09:38:00,
2013-02-07 04:44:00,36.0,27.5,30.13,North,350,0.0,9.0,71,0.00,,,0.00,VWS V14.01,2013-02-07 09:44:00,
2013-02-07 04:49:00,36.2,26.7,30.13,North,350,0.0,9.0,68,0.00,,,0.00,VWS V14.01,2013-02-07 09:49:00,
2013-02-07 04:54:00,36.2,25.6,30.13,North,350,0.0,9.0,65,0.00,,,0.00,VWS V14.01,2013-02-07 09:54:00,
2013-02-07 04:59:00,36.5,27.0,30.13,North,350,0.0,9.0,68,0.00,,,0.00,VWS V14.01,2013-02-07 09:59:00,
2013-02-07 05:04:00,36.5,26.6,30.13,North,350,0.0,9.0,67,0.00,,,0.00,VWS V14.01,2013-02-07 10:04:00,
2013-02-07 05:09:00,36.6,26.3,30.13,SE,136,2.0,9.0,66,0.00,,,0.00,VWS V14.01,2013-02-07 10:09:00,
2013-02-07 05:14:00,36.8,26.1,30.13,WNW,299,1.0,9.0,65,0.00,,,0.00,VWS V14.01,2013-02-07 10:14:00,
2013-02-07 05:19:00,36.9,25.5,30.13,WNW,299,0.0,9.0,63,0.00,,,0.00,VWS V14.01,2013-02-07 10:19:00,
2013-02-07 05:24:00,37.0,26.0,30.14,WNW,299,0.0,9.0,64,0.00,,,0.00,VWS V14.01,2013-02-07 10:24:00,
2013-02-07 05:29:00,37.2,25.8,30.14,WNW,299,0.0,9.0,63,0.00,,,0.00,VWS V14.01,2013-02-07 10:29:00,
2013-02-07 05:34:00,37.5,24.9,30.14,WNW,299,0.0,9.0,60,0.00,,,0.00,VWS V14.01,2013-02-07 10:34:00,
2013-02-07 05:39:00,37.9,24.9,30.14,WNW,299,0.0,9.0,59,0.00,,,0.00,VWS V14.01,2013-02-07 10:39:00,
2013-02-07 05:45:00,38.2,26.3,30.14,WNW,299,0.0,9.0,62,0.00,,,0.00,VWS V14.01,2013-02-07 10:45:00,
2013-02-07 05:50:00,38.5,24.6,30.14,West,271,2.0,9.0,57,0.00,,,0.00,VWS V14.01,2013-02-07 10:50:00,
2013-02-07 05:55:00,39.1,26.4,30.13,West,271,0.0,9.0,60,0.00,,,0.00,VWS V14.01,2013-02-07 10:55:00,
2013-02-07 06:00:00,39.2,24.0,30.13,West,272,1.0,9.0,54,0.00,,,0.00,VWS V14.01,2013-02-07 11:00:00,
2013-02-07 06:05:00,39.5,25.5,30.13,West,272,0.0,9.0,57,0.00,,,0.00,VWS V14.01,2013-02-07 11:05:00,
2013-02-07 06:10:00,39.2,24.4,30.13,WNW,298,1.0,9.0,55,0.00,,,0.00,VWS V14.01,2013-02-07 11:10:00,
2013-02-07 06:15:00,39.2,24.4,30.13,West,279,1.0,9.0,55,0.00,,,0.00,VWS V14.01,2013-02-07 11:15:00,
2013-02-07 06:20:00,39.5,25.1,30.14,NW,309,0.0,9.0,56,0.00,,,0.00,VWS V14.01,2013-02-07 11:20:00,
2013-02-07 06:25:00,40.1,24.4,30.14,NW,309,0.0,9.0,53,0.00,,,0.00,VWS V14.01,2013-02-07 11:25:00,
2013-02-07 06:30:00,40.5,24.3,30.14,NNE,13,1.0,9.0,52,0.00,,,0.00,VWS V14.01,2013-02-07 11:30:00,
2013-02-07 06:35:00,40.8,24.1,30.14,West,281,0.0,9.0,51,0.00,,,0.00,VWS V14.01,2013-02-07 11:35:00,
2013-02-07 06:41:00,41.2,25.8,30.14,West,271,1.0,9.0,54,0.00,,,0.00,VWS V14.01,2013-02-07 11:41:00,
2013-02-07 06:46:00,41.3,24.1,30.14,West,274,1.0,9.0,50,0.00,,,0.00,VWS V14.01,2013-02-07 11:46:00,
2013-02-07 06:51:00,41.3,27.2,30.14,West,274,1.0,9.0,57,0.00,,,0.00,VWS V14.01,2013-02-07 11:51:00,
2013-02-07 06:56:00,40.9,25.5,30.14,West,274,0.0,9.0,54,0.00,,,0.00,VWS V14.01,2013-02-07 11:56:00,
2013-02-07 07:01:00,40.8,24.5,30.14,West,274,1.0,9.0,52,0.00,,,0.00,VWS V14.01,2013-02-07 12:01:00,
2013-02-07 07:06:00,41.1,24.8,30.15,West,274,1.0,9.0,52,0.00,,,0.00,VWS V14.01,2013-02-07 12:06:00,
2013-02-07 07:11:00,41.2,24.0,30.15,West,275,0.0,9.0,50,0.00,,,0.00,VWS V14.01,2013-02-07 12:11:00,
2013-02-07 07:16:00,40.9,26.9,30.15,SE,145,0.0,9.0,57,0.00,,,0.00,VWS V14.01,2013-02-07 12:16:00,
2013-02-07 07:21:00,40.8,26.3,30.15,ENE,57,0.0,9.0,56,0.00,,,0.00,VWS V14.01,2013-02-07 12:21:00,
2013-02-07 07:26:00,40.5,26.0,30.15,East,93,0.0,9.0,56,0.00,,,0.00,VWS V14.01,2013-02-07 12:26:00,
2013-02-07 07:31:00,40.8,25.0,30.15,East,83,0.0,9.0,53,0.00,,,0.00,VWS V14.01,2013-02-07 12:31:00,
2013-02-07 07:36:00,41.2,25.4,30.15,WNW,284,0.0,9.0,53,0.00,,,0.00,VWS V14.01,2013-02-07 12:36:00,
2013-02-07 07:42:00,41.2,24.9,30.15,WNW,284,0.0,9.0,52,0.00,,,0.00,VWS V14.01,2013-02-07 12:42:00,
2013-02-07 07:47:00,41.3,25.9,30.15,WNW,284,0.0,9.0,54,0.00,,,0.00,VWS V14.01,2013-02-07 12:47:00,
2013-02-07 07:52:00,41.6,23.9,30.15,WNW,284,0.0,9.0,49,0.00,,,0.00,VWS V14.01,2013-02-07 12:52:00,
2013-02-07 07:57:00,42.2,24.4,30.15,WSW,245,1.0,9.0,49,0.00,,,0.00,VWS V14.01,2013-02-07 12:57:00,
2013-02-07 08:02:00,42.3,24.5,30.15,WSW,246,0.0,9.0,49,0.00,,,0.00,VWS V14.01,2013-02-07 13:02:00,
2013-02-07 08:07:00,42.5,24.2,30.15,WSW,246,0.0,9.0,48,0.00,,,0.00,VWS V14.01,2013-02-07 13:07:00,
2013-02-07 08:12:00,42.8,24.0,30.15,WSW,246,0.0,9.0,47,0.00,,,0.00,VWS V14.01,2013-02-07 13:12:00,
2013-02-07 08:17:00,42.8,24.5,30.15,North,9,0.0,9.0,48,0.00,,,0.00,VWS V14.01,2013-02-07 13:17:00,
2013-02-07 08:22:00,42.6,25.3,30.15,North,9,1.0,9.0,50,0.00,,,0.00,VWS V14.01,2013-02-07 13:22:00,
2013-02-07 08:27:00,42.6,25.8,30.15,North,9,0.0,9.0,51,0.00,,,0.00,VWS V14.01,2013-02-07 13:27:00,
2013-02-07 08:32:00,42.8,25.0,30.15,SSE,157,0.0,9.0,49,0.00,,,0.00,VWS V14.01,2013-02-07 13:32:00,
2013-02-07 08:37:00,43.1,23.7,30.14,North,9,2.0,9.0,46,0.00,,,0.00,VWS V14.01,2013-02-07 13:37:00,
2013-02-07 08:43:00,43.3,24.4,30.14,NNW,343,0.0,9.0,47,0.00,,,0.00,VWS V14.01,2013-02-07 13:43:00,
2013-02-07 08:48:00,43.5,24.1,30.14,NNW,343,2.0,9.0,46,0.00,,,0.00,VWS V14.01,2013-02-07 13:48:00,
2013-02-07 08:53:00,43.6,24.7,30.14,NNW,344,0.0,9.0,47,0.00,,,0.00,VWS V14.01,2013-02-07 13:53:00,
2013-02-07 08:58:00,43.8,24.9,30.14,NNW,344,2.0,9.0,47,0.00,,,0.00,VWS V14.01,2013-02-07 13:58:00,
2013-02-07 09:03:00,43.9,24.5,30.14,NW,321,0.0,9.0,46,0.00,,,0.00,VWS V14.01,2013-02-07 14:03:00,
2013-02-07 09:08:00,44.2,24.2,30.14,NW,311,0.0,9.0,45,0.00,,,0.00,VWS V14.01,2013-02-07 14:08:00,
2013-02-07 09:13:00,44.3,24.3,30.14,NNW,348,2.0,9.0,45,0.00,,,0.00,VWS V14.01,2013-02-07 14:13:00,
2013-02-07 09:18:00,44.5,24.5,30.14,SW,234,1.0,9.0,45,0.00,,,0.00,VWS V14.01,2013-02-07 14:18:00,
2013-02-07 09:23:00,44.6,24.6,30.13,SW,217,0.0,9.0,45,0.00,,,0.00,VWS V14.01,2013-02-07 14:23:00,
2013-02-07 09:28:00,44.8,25.8,30.13,SW,217,0.0,9.0,47,0.00,,,0.00,VWS V14.01,2013-02-07 14:28:00,
2013-02-07 09:33:00,44.9,24.3,30.13,NNE,21,0.0,9.0,44,0.00,,,0.00,VWS V14.01,2013-02-07 14:33:00,
2013-02-07 09:39:00,45.1,24.5,30.14,NW,309,0.0,9.0,44,0.00,,,0.00,VWS V14.01,2013-02-07 14:39:00,
2013-02-07 09:44:00,45.2,24.0,30.14,NE,37,0.0,9.0,43,0.00,,,0.00,VWS V14.01,2013-02-07 14:44:00,
2013-02-07 09:49:00,45.4,24.2,30.14,NE,42,0.0,9.0,43,0.00,,,0.00,VWS V14.01,2013-02-07 14:49:00,
2013-02-07 09:54:00,45.7,24.5,30.13,North,5,0.0,9.0,43,0.00,,,0.00,VWS V14.01,2013-02-07 14:54:00,
2013-02-07 09:59:00,45.8,25.1,30.13,North,5,1.0,9.0,44,0.00,,,0.00,VWS V14.01,2013-02-07 14:59:00,
2013-02-07 10:04:00,46.1,25.4,30.13,North,5,0.0,9.0,44,0.00,,,0.00,VWS V14.01,2013-02-07 15:04:00,
2013-02-07 10:09:00,46.2,25.0,30.13,SW,224,1.0,9.0,43,0.00,,,0.00,VWS V14.01,2013-02-07 15:09:00,
2013-02-07 10:14:00,46.4,26.2,30.13,West,273,1.0,9.0,45,0.00,,,0.00,VWS V14.01,2013-02-07 15:14:00,
2013-02-07 10:19:00,46.4,25.7,30.13,SE,137,0.0,9.0,44,0.00,,,0.00,VWS V14.01,2013-02-07 15:19:00,
2013-02-07 10:25:00,46.4,25.7,30.12,NE,42,1.0,9.0,44,0.00,,,0.00,VWS V14.01,2013-02-07 15:25:00,
2013-02-07 10:30:00,46.5,25.8,30.12,NNW,332,1.0,9.0,44,0.00,,,0.00,VWS V14.01,2013-02-07 15:30:00,
2013-02-07 10:35:00,46.7,26.0,30.12,WNW,297,0.0,9.0,44,0.00,,,0.00,VWS V14.01,2013-02-07 15:35:00,
2013-02-07 10:40:00,47.1,26.3,30.12,WNW,297,1.0,9.0,44,0.00,,,0.00,VWS V14.01,2013-02-07 15:40:00,
2013-02-07 10:45:00,47.4,27.7,30.12,WNW,297,0.0,9.0,46,0.00,,,0.00,VWS V14.01,2013-02-07 15:45:00,
2013-02-07 10:50:00,47.6,26.2,30.12,WNW,297,0.0,9.0,43,0.00,,,0.00,VWS V14.01,2013-02-07 15:50:00,
2013-02-07 10:55:00,47.9,25.9,30.11,WSW,241,0.0,9.0,42,0.00,,,0.00,VWS V14.01,2013-02-07 15:55:00,
2013-02-07 11:00:00,47.9,26.5,30.11,NNW,348,2.0,9.0,43,0.00,,,0.00,VWS V14.01,2013-02-07 16:00:00,
2013-02-07 11:05:00,48.0,26.6,30.11,WNW,292,1.0,9.0,43,0.00,,,0.00,VWS V14.01,2013-02-07 16:05:00,
2013-02-07 11:10:00,48.2,27.3,30.11,WNW,292,0.0,9.0,44,0.00,,,0.00,VWS V14.01,2013-02-07 16:10:00,
2013-02-07 11:15:00,48.6,27.7,30.11,West,267,0.0,9.0,44,0.00,,,0.00,VWS V14.01,2013-02-07 16:15:00,
2013-02-07 11:20:00,48.9,27.4,30.10,WSW,254,0.0,9.0,43,0.00,,,0.00,VWS V14.01,2013-02-07 16:20:00,
2013-02-07 11:26:00,49.1,27.6,30.10,WNW,296,0.0,9.0,43,0.00,,,0.00,VWS V14.01,2013-02-07 16:26:00,
2013-02-07 11:31:00,49.1,28.1,30.10,NW,308,3.0,9.0,44,0.00,,,0.00,VWS V14.01,2013-02-07 16:31:00,
2013-02-07 11:36:00,49.2,27.7,30.09,West,279,0.0,9.0,43,0.00,,,0.00,VWS V14.01,2013-02-07 16:36:00,
2013-02-07 11:41:00,49.5,28.5,30.09,SW,216,6.0,9.0,44,0.00,,,0.00,VWS V14.01,2013-02-07 16:41:00,
2013-02-07 11:46:00,49.5,29.1,30.09,SSW,205,0.0,9.0,45,0.00,,,0.00,VWS V14.01,2013-02-07 16:46:00,
2013-02-07 11:51:00,49.6,28.0,30.07,West,260,0.0,9.0,43,0.00,,,0.00,VWS V14.01,2013-02-07 16:51:00,
2013-02-07 11:56:00,49.8,28.2,30.07,West,279,1.0,9.0,43,0.00,,,0.00,VWS V14.01,2013-02-07 16:56:00,
2013-02-07 12:01:00,49.8,29.3,30.07,NNE,14,0.0,9.0,45,0.00,,,0.00,VWS V14.01,2013-02-07 17:01:00,
2013-02-07 12:06:00,49.6,28.6,30.07,NW,304,1.0,9.0,44,0.00,,,0.00,VWS V14.01,2013-02-07 17:06:00,
2013-02-07 12:11:00,49.6,28.6,30.07,ESE,113,1.0,9.0,44,0.00,,,0.00,VWS V14.01,2013-02-07 17:11:00,
2013-02-07 12:16:00,49.9,29.4,30.07,WNW,292,0.0,9.0,45,0.00,,,0.00,VWS V14.01,2013-02-07 17:16:00,
2013-02-07 12:21:00,50.2,29.7,30.05,South,173,1.0,9.0,45,0.00,,,0.00,VWS V14.01,2013-02-07 17:21:00,
2013-02-07 12:26:00,50.5,30.5,30.05,SW,216,0.0,9.0,46,0.00,,,0.00,VWS V14.01,2013-02-07 17:26:00,
2013-02-07 12:31:00,51.0,29.3,30.05,SW,216,0.0,9.0,43,0.00,,,0.00,VWS V14.01,2013-02-07 17:31:00,
2013-02-07 12:36:00,51.0,29.9,30.03,NNW,338,0.0,9.0,44,0.00,,,0.00,VWS V14.01,2013-02-07 17:36:00,
2013-02-07 12:41:00,51.3,30.7,30.03,SSW,201,0.0,9.0,45,0.00,,,0.00,VWS V14.01,2013-02-07 17:41:00,
2013-02-07 12:46:00,51.7,29.9,30.03,NNE,19,1.0,9.0,43,0.00,,,0.00,VWS V14.01,2013-02-07 17:46:00,
2013-02-07 12:52:00,52.2,30.4,30.03,West,277,2.0,9.0,43,0.00,,,0.00,VWS V14.01,2013-02-07 17:52:00,
2013-02-07 12:57:00,52.5,30.7,30.03,WNW,300,3.0,9.0,43,0.00,,,0.00,VWS V14.01,2013-02-07 17:57:00,
2013-02-07 13:02:00,52.8,30.9,30.03,North,360,3.0,9.0,43,0.00,,,0.00,VWS V14.01,2013-02-07 18:02:00,
2013-02-07 13:07:00,52.8,30.9,30.02,SE,127,4.0,9.0,43,0.00,,,0.00,VWS V14.01,2013-02-07 18:07:00,
2013-02-07 13:12:00,52.8,30.9,30.02,NNW,339,2.0,9.0,43,0.00,,,0.00,VWS V14.01,2013-02-07 18:12:00,
2013-02-07 13:17:00,53.2,31.3,30.02,WNW,297,0.0,9.0,43,0.00,,,0.00,VWS V14.01,2013-02-07 18:17:00,
2013-02-07 13:22:00,53.8,30.7,30.01,West,279,0.0,9.0,41,0.00,,,0.00,VWS V14.01,2013-02-07 18:22:00,
2013-02-07 13:27:00,54.1,30.9,30.01,NE,54,1.0,9.0,41,0.00,,,0.00,VWS V14.01,2013-02-07 18:27:00,
2013-02-07 13:32:00,54.2,31.6,30.01,West,279,0.0,9.0,42,0.00,,,0.00,VWS V14.01,2013-02-07 18:32:00,
2013-02-07 13:37:00,54.4,31.8,29.99,South,171,0.0,9.0,42,0.00,,,0.00,VWS V14.01,2013-02-07 18:37:00,
2013-02-07 13:42:00,54.5,31.3,29.99,NNW,335,0.0,9.0,41,0.00,,,0.00,VWS V14.01,2013-02-07 18:42:00,
2013-02-07 13:47:00,54.8,32.2,29.99,WNW,285,2.0,9.0,42,0.00,,,0.00,VWS V14.01,2013-02-07 18:47:00,
2013-02-07 13:52:00,54.8,31.6,29.99,SSW,198,2.0,9.0,41,0.00,,,0.00,VWS V14.01,2013-02-07 18:52:00,
2013-02-07 13:58:00,54.5,31.9,29.99,South,188,0.0,9.0,42,0.00,,,0.00,VWS V14.01,2013-02-07 18:58:00,
2013-02-07 14:03:00,54.2,32.2,29.99,NW,318,5.0,9.0,43,0.00,,,0.00,VWS V14.01,2013-02-07 19:03:00,
2013-02-07 14:08:00,53.9,31.9,29.99,West,277,2.0,9.0,43,0.00,,,0.00,VWS V14.01,2013-02-07 19:08:00,
2013-02-07 14:13:00,53.8,31.9,29.99,West,266,0.0,9.0,43,0.00,,,0.00,VWS V14.01,2013-02-07 19:13:00,
2013-02-07 14:18:00,53.9,32.5,29.99,WSW,252,4.0,9.0,44,0.00,,,0.00,VWS V14.01,2013-02-07 19:18:00,
2013-02-07 14:23:00,53.8,32.4,29.99,WSW,244,6.0,9.0,44,0.00,,,0.00,VWS V14.01,2013-02-07 19:23:00,
2013-02-07 14:28:00,53.8,33.5,29.99,NNW,329,1.0,9.0,46,0.00,,,0.00,VWS V14.01,2013-02-07 19:28:00,
2013-02-07 14:33:00,53.8,33.0,29.99,WNW,292,1.0,9.0,45,0.00,,,0.00,VWS V14.01,2013-02-07 19:33:00,
2013-02-07 14:38:00,53.8,33.0,29.99,WNW,294,1.0,9.0,45,0.00,,,0.00,VWS V14.01,2013-02-07 19:38:00,
2013-02-07 14:43:00,53.6,32.8,29.99,West,275,0.0,9.0,45,0.00,,,0.00,VWS V14.01,2013-02-07 19:43:00,
2013-02-07 14:48:00,53.8,33.5,29.99,West,274,3.0,9.0,46,0.00,,,0.00,VWS V14.01,2013-02-07 19:48:00,
2013-02-07 14:53:00,53.9,33.1,29.98,West,273,3.0,9.0,45,0.00,,,0.00,VWS V14.01,2013-02-07 19:53:00,
2013-02-07 14:59:00,53.9,33.6,29.98,NNW,342,2.0,9.0,46,0.00,,,0.00,VWS V14.01,2013-02-07 19:59:00,
2013-02-07 15:04:00,53.9,33.6,29.98,NW,325,1.0,9.0,46,0.00,,,0.00,VWS V14.01,2013-02-07 20:04:00,
2013-02-07 15:09:00,53.9,33.6,29.98,WNW,303,2.0,9.0,46,0.00,,,0.00,VWS V14.01,2013-02-07 20:09:00,
2013-02-07 15:14:00,53.9,34.2,29.98,WSW,247,7.0,9.0,47,0.00,,,0.00,VWS V14.01,2013-02-07 20:14:00,
2013-02-07 15:19:00,53.8,34.1,29.98,West,271,4.0,9.0,47,0.00,,,0.00,VWS V14.01,2013-02-07 20:19:00,
2013-02-07 15:24:00,53.6,34.4,29.98,WNW,294,4.0,9.0,48,0.00,,,0.00,VWS V14.01,2013-02-07 20:24:00,
2013-02-07 15:29:00,53.5,34.3,29.98,NNW,328,5.0,9.0,48,0.00,,,0.00,VWS V14.01,2013-02-07 20:29:00,
2013-02-07 15:34:00,53.5,34.8,29.98,West,269,3.0,9.0,49,0.00,,,0.00,VWS V14.01,2013-02-07 20:34:00,
2013-02-07 15:39:00,53.3,34.7,29.98,ENE,74,4.0,9.0,49,0.00,,,0.00,VWS V14.01,2013-02-07 20:39:00,
2013-02-07 15:44:00,53.2,34.5,29.98,WSW,243,1.0,9.0,49,0.00,,,0.00,VWS V14.01,2013-02-07 20:44:00,
2013-02-07 15:49:00,53.2,35.1,29.98,NNE,20,4.0,9.0,50,0.00,,,0.00,VWS V14.01,2013-02-07 20:49:00,
2013-02-07 15:55:00,53.1,35.5,29.98,South,185,1.0,9.0,51,0.00,,,0.00,VWS V14.01,2013-02-07 20:55:00,
2013-02-07 16:00:00,52.9,35.3,29.98,SW,215,3.0,9.0,51,0.00,,,0.00,VWS V14.01,2013-02-07 21:00:00,
2013-02-07 16:05:00,52.8,35.7,29.98,SW,221,1.0,9.0,52,0.00,,,0.00,VWS V14.01,2013-02-07 21:05:00,
2013-02-07 16:10:00,52.5,35.9,29.98,East,91,1.0,9.0,53,0.00,,,0.00,VWS V14.01,2013-02-07 21:10:00,
2013-02-07 16:15:00,52.3,36.2,29.98,WNW,289,0.0,9.0,54,0.00,,,0.00,VWS V14.01,2013-02-07 21:15:00,
2013-02-07 16:20:00,52.2,36.1,29.98,NNE,30,1.0,9.0,54,0.00,,,0.00,VWS V14.01,2013-02-07 21:20:00,
2013-02-07 16:25:00,51.9,36.3,29.98,ENE,57,3.0,9.0,55,0.00,,,0.00,VWS V14.01,2013-02-07 21:25:00,
2013-02-07 16:30:00,51.6,36.9,29.98,WNW,295,2.0,9.0,57,0.00,,,0.00,VWS V14.01,2013-02-07 21:30:00,
2013-02-07 16:36:00,51.3,37.0,29.98,NE,38,3.0,9.0,58,0.00,,,0.00,VWS V14.01,2013-02-07 21:36:00,
2013-02-07 16:41:00,51.0,37.2,29.98,WSW,246,2.0,9.0,59,0.00,,,0.00,VWS V14.01,2013-02-07 21:41:00,
2013-02-07 16:46:00,50.8,37.4,29.98,NW,319,2.0,9.0,60,0.00,,,0.00,VWS V14.01,2013-02-07 21:46:00,
2013-02-07 16:51:00,50.7,37.3,29.98,WSW,248,0.0,9.0,60,0.00,,,0.00,VWS V14.01,2013-02-07 21:51:00,
2013-02-07 16:56:00,50.5,37.2,29.98,WSW,245,0.0,9.0,60,0.00,,,0.00,VWS V14.01,2013-02-07 21:56:00,
2013-02-07 17:01:00,50.5,37.6,29.98,West,270,3.0,9.0,61,0.00,,,0.00,VWS V14.01,2013-02-07 22:01:00,
2013-02-07 17:06:00,50.5,37.6,29.97,WSW,248,0.0,9.0,61,0.00,,,0.00,VWS V14.01,2013-02-07 22:06:00,
2013-02-07 17:11:00,50.4,37.9,29.97,WNW,295,2.0,9.0,62,0.00,,,0.00,VWS V14.01,2013-02-07 22:11:00,
2013-02-07 17:16:00,50.1,37.6,29.97,WSW,246,0.0,9.0,62,0.00,,,0.00,VWS V14.01,2013-02-07 22:16:00,
2013-02-07 17:21:00,49.8,37.7,29.97,West,261,0.0,9.0,63,0.00,,,0.00,VWS V14.01,2013-02-07 22:21:00,
2013-02-07 17:26:00,49.5,37.4,29.97,NNW,340,2.0,9.0,63,0.00,,,0.00,VWS V14.01,2013-02-07 22:26:00,
2013-02-07 17:32:00,49.4,37.8,29.97,East,86,0.0,9.0,64,0.00,,,0.00,VWS V14.01,2013-02-07 22:32:00,
2013-02-07 17:37:00,49.1,37.9,29.97,South,169,0.0,9.0,65,0.00,,,0.00,VWS V14.01,2013-02-07 22:37:00,
2013-02-07 17:42:00,48.8,38.3,29.97,WNW,300,3.0,9.0,67,0.00,,,0.00,VWS V14.01,2013-02-07 22:42:00,
2013-02-07 17:47:00,48.6,38.5,29.97,West,269,2.0,9.0,68,0.00,,,0.00,VWS V14.01,2013-02-07 22:47:00,
2013-02-07 17:52:00,48.2,38.5,29.97,ESE,120,0.0,9.0,69,0.00,,,0.00,VWS V14.01,2013-02-07 22:52:00,
2013-02-07 17:57:00,47.9,39.3,29.97,West,260,1.0,9.0,72,0.00,,,0.00,VWS V14.01,2013-02-07 22:57:00,
2013-02-07 18:02:00,47.6,39.4,29.97,West,261,0.0,9.0,73,0.00,,,0.00,VWS V14.01,2013-02-07 23:02:00,
2013-02-07 18:07:00,47.3,39.5,29.97,NW,305,1.0,9.0,74,0.00,,,0.00,VWS V14.01,2013-02-07 23:07:00,
2013-02-07 18:12:00,46.8,40.0,29.97,West,266,2.0,9.0,77,0.00,,,0.00,VWS V14.01,2013-02-07 23:12:00,
2013-02-07 18:17:00,46.4,40.2,29.97,SW,232,3.0,9.0,79,0.00,,,0.00,VWS V14.01,2013-02-07 23:17:00,
2013-02-07 18:22:00,46.1,40.0,29.97,WNW,302,2.0,9.0,79,0.00,,,0.00,VWS V14.01,2013-02-07 23:22:00,
2013-02-07 18:27:00,45.8,40.0,29.97,WSW,253,2.0,9.0,80,0.00,,,0.00,VWS V14.01,2013-02-07 23:27:00,
2013-02-07 18:32:00,45.7,40.2,29.97,SW,236,0.0,9.0,81,0.00,,,0.00,VWS V14.01,2013-02-07 23:32:00,
2013-02-07 18:37:00,45.7,40.2,29.97,WNW,302,2.0,9.0,81,0.00,,,0.00,VWS V14.01,2013-02-07 23:37:00,
2013-02-07 18:43:00,45.5,40.3,29.97,NNW,348,2.0,9.0,82,0.00,,,0.00,VWS V14.01,2013-02-07 23:43:00,
2013-02-07 18:48:00,45.5,40.3,29.97,West,271,0.0,9.0,82,0.00,,,0.00,VWS V14.01,2013-02-07 23:48:00,
2013-02-07 18:53:00,45.5,40.0,29.97,WNW,290,5.0,9.0,81,0.00,,,0.00,VWS V14.01,2013-02-07 23:53:00,
2013-02-07 18:58:00,45.5,40.0,29.97,West,272,5.0,9.0,81,0.00,,,0.00,VWS V14.01,2013-02-07 23:58:00,
2013-02-07 19:03:00,45.5,39.7,29.97,East,99,0.0,9.0,80,0.00,,,0.00,VWS V14.01,2013-02-08 00:03:00,
2013-02-07 19:08:00,45.5,39.4,29.97,NNW,344,1.0,9.0,79,0.00,,,0.00,VWS V14.01,2013-02-08 00:08:00,
2013-02-07 19:13:00,45.5,39.4,29.97,South,169,0.0,9.0,79,0.00,,,0.00,VWS V14.01,2013-02-08 00:13:00,
2013-02-07 19:18:00,45.5,39.0,29.97,NE,40,0.0,9.0,78,0.00,,,0.00,VWS V14.01,2013-02-08 00:18:00,
2013-02-07 19:23:00,45.5,39.4,29.97,SW,220,0.0,9.0,79,0.00,,,0.00,VWS V14.01,2013-02-08 00:23:00,
2013-02-07 19:28:00,45.4,39.0,29.97,ENE,63,0.0,9.0,78,0.00,,,0.00,VWS V14.01,2013-02-08 00:28:00,
2013-02-07 19:33:00,45.2,39.1,29.97,WSW,237,1.0,9.0,79,0.00,,,0.00,VWS V14.01,2013-02-08 00:33:00,
2013-02-07 19:38:00,45.1,38.7,29.96,NE,40,2.0,9.0,78,0.00,,,0.00,VWS V14.01,2013-02-08 00:38:00,
2013-02-07 19:43:00,45.1,39.0,29.96,West,270,1.0,9.0,79,0.00,,,0.00,VWS V14.01,2013-02-08 00:43:00,
2013-02-07 19:48:00,44.9,38.5,29.96,WSW,248,3.0,9.0,78,0.00,,,0.00,VWS V14.01,2013-02-08 00:48:00,
2013-02-07 19:53:00,44.8,38.4,29.95,West,268,2.0,9.0,78,0.00,,,0.00,VWS V14.01,2013-02-08 00:53:00,
2013-02-07 19:59:00,44.6,38.2,29.95,NW,312,1.0,9.0,78,0.00,,,0.00,VWS V14.01,2013-02-08 00:59:00,
2013-02-07 20:04:00,44.5,38.1,29.95,WNW,287,0.0,9.0,78,0.00,,,0.00,VWS V14.01,2013-02-08 01:04:00,
2013-02-07 21:13:00,44.2,37.1,29.94,WSW,257,2.0,9.0,76,0.00,,,0.00,VWS V14.01,2013-02-08 02:13:00,
2013-02-07 21:18:00,44.1,37.0,29.94,West,259,2.0,9.0,76,0.00,,,0.00,VWS V14.01,2013-02-08 02:18:00,
2013-02-07 21:23:00,44.1,37.0,29.93,WNW,288,4.0,9.0,76,0.00,,,0.00,VWS V14.01,2013-02-08 02:23:00,
2013-02-07 21:28:00,44.1,37.0,29.93,NW,322,5.0,9.0,76,0.00,,,0.00,VWS V14.01,2013-02-08 02:28:00,
2013-02-07 21:33:00,44.1,37.0,29.93,NW,313,1.0,9.0,76,0.00,,,0.00,VWS V14.01,2013-02-08 02:33:00,
2013-02-07 21:38:00,44.1,36.7,29.93,WSW,238,4.0,9.0,75,0.00,,,0.00,VWS V14.01,2013-02-08 02:38:00,
2013-02-07 21:43:00,44.1,37.0,29.93,West,267,1.0,9.0,76,0.00,,,0.00,VWS V14.01,2013-02-08 02:43:00,
2013-02-07 22:17:00,43.9,36.5,29.92,NNW,336,1.0,9.0,75,0.00,,,0.00,VWS V14.01,2013-02-08 03:17:00,
2013-02-07 22:22:00,43.9,36.8,29.91,NW,312,2.0,9.0,76,0.00,,,0.00,VWS V14.01,2013-02-08 03:22:00,
2013-02-07 22:27:00,43.9,36.8,29.91,WNW,293,0.0,9.0,76,0.00,,,0.00,VWS V14.01,2013-02-08 03:27:00,
2013-02-07 22:32:00,43.8,36.7,29.91,WNW,293,0.0,9.0,76,0.00,,,0.00,VWS V14.01,2013-02-08 03:32:00,
2013-02-07 22:37:00,43.8,36.4,29.91,West,267,1.0,9.0,75,0.00,,,0.00,VWS V14.01,2013-02-08 03:37:00,
2013-02-07 22:43:00,43.8,36.7,29.91,West,267,0.0,9.0,76,0.00,,,0.00,VWS V14.01,2013-02-08 03:43:00,
2013-02-07 22:48:00,43.8,36.7,29.91,NNW,342,0.0,9.0,76,0.00,,,0.00,VWS V14.01,2013-02-08 03:48:00,
2013-02-07 22:53:00,43.8,36.7,29.91,NNW,336,0.0,9.0,76,0.00,,,0.00,VWS V14.01,2013-02-08 03:53:00,
2013-02-07 22:58:00,43.8,36.7,29.91,West,280,0.0,9.0,76,0.00,,,0.00,VWS V14.01,2013-02-08 03:58:00,
2013-02-07 23:03:00,43.8,36.7,29.91,West,271,1.0,9.0,76,0.00,,,0.00,VWS V14.01,2013-02-08 04:03:00,
2013-02-07 23:08:00,43.9,36.5,29.90,West,271,4.0,9.0,75,0.00,,,0.00,VWS V14.01,2013-02-08 04:08:00,
2013-02-07 23:13:00,43.9,36.8,29.90,West,271,0.0,9.0,76,0.00,,,0.00,VWS V14.01,2013-02-08 04:13:00,
2013-02-07 23:18:00,43.9,36.5,29.90,West,266,0.0,9.0,75,0.00,,,0.00,VWS V14.01,2013-02-08 04:18:00,
2013-02-07 23:23:00,43.9,37.2,29.89,West,266,0.0,9.0,77,0.00,,,0.00,VWS V14.01,2013-02-08 04:23:00,
2013-02-07 23:28:00,43.5,36.8,29.89,West,266,0.0,9.0,77,0.00,,,0.00,VWS V14.01,2013-02-08 04:28:00,
2013-02-07 23:33:00,43.3,36.6,29.89,West,266,0.0,9.0,77,0.00,,,0.00,VWS V14.01,2013-02-08 04:33:00,
2013-02-07 23:39:00,43.3,36.9,29.89,West,266,0.0,9.0,78,0.00,,,0.00,VWS V14.01,2013-02-08 04:39:00,
2013-02-07 23:44:00,43.2,36.8,29.89,West,266,0.0,9.0,78,0.00,,,0.00,VWS V14.01,2013-02-08 04:44:00,
2013-02-07 23:49:00,43.1,36.7,29.89,West,266,0.0,9.0,78,0.00,,,0.00,VWS V14.01,2013-02-08 04:49:00,
2013-02-07 23:54:00,42.9,36.8,29.88,West,266,0.0,9.0,79,0.00,,,0.00,VWS V14.01,2013-02-08 04:54:00,
2013-02-07 23:59:00,43.1,36.7,29.88,West,263,0.0,9.0,78,0.00,,,0.00,VWS V14.01,2013-02-08 04:59:00,